| time (UTC) | temp F | wind direction | speed MPH | gust MPH | rain 1hr in | rain 24hr in | rain mn in | humidity % | barometer mb |
| 20260503190434 | 69 | 236 | 2.0 | 9.0 | 0.00 | 0.05 | 0.00 | 44 | 1018.6 |
| 20260503185919 | 68 | 318 | 4.0 | 9.0 | 0.00 | 0.05 | 0.00 | 44 | 1018.8 |
| 20260503184915 | 68 | 2 | 4.0 | 9.0 | 0.00 | 0.06 | 0.00 | 43 | 1018.8 |
| 20260503184428 | 69 | 330 | 3.0 | 9.0 | 0.00 | 0.06 | 0.00 | 41 | 1019.0 |
| 20260503183925 | 68 | 315 | 4.0 | 9.0 | 0.00 | 0.06 | 0.00 | 43 | 1019.0 |
| 20260503183421 | 70 | 331 | 4.0 | 9.0 | 0.00 | 0.07 | 0.00 | 40 | 1019.1 |
| 20260503182938 | 69 | 261 | 3.0 | 8.0 | 0.00 | 0.07 | 0.00 | 44 | 1019.1 |
| 20260503182435 | 69 | 309 | 3.0 | 10.0 | 0.00 | 0.08 | 0.00 | 42 | 1019.1 |
| 20260503181930 | 69 | 269 | 5.0 | 10.0 | 0.00 | 0.09 | 0.00 | 42 | 1019.2 |
| 20260503180930 | 69 | 297 | 3.0 | 10.0 | 0.00 | 0.09 | 0.00 | 43 | 1019.2 |
| 20260503180417 | 70 | 326 | 7.0 | 10.0 | 0.00 | 0.09 | 0.00 | 43 | 1019.2 |
| 20260503175920 | 70 | 284 | 3.0 | 10.0 | 0.00 | 0.10 | 0.00 | 40 | 1019.3 |
| 20260503175412 | 70 | 313 | 4.0 | 11.0 | 0.00 | 0.10 | 0.00 | 42 | 1019.2 |
| 20260503174921 | 70 | 248 | 3.0 | 13.0 | 0.00 | 0.10 | 0.00 | 43 | 1019.2 |
| 20260503174440 | 70 | 261 | 6.0 | 13.0 | 0.00 | 0.11 | 0.00 | 43 | 1019.1 |
| 20260503173941 | 68 | 328 | 4.0 | 11.0 | 0.00 | 0.11 | 0.00 | 47 | 1019.1 |
| 20260503173417 | 68 | 320 | 7.0 | 11.0 | 0.00 | 0.11 | 0.00 | 45 | 1019.3 |
| 20260503172902 | 68 | 266 | 3.0 | 10.0 | 0.00 | 0.12 | 0.00 | 45 | 1019.4 |
| 20260503171938 | 69 | 263 | 4.0 | 10.0 | 0.00 | 0.16 | 0.00 | 44 | 1019.5 |
| 20260503171404 | 69 | 319 | 3.0 | 8.0 | 0.00 | 0.17 | 0.00 | 49 | 1019.5 |
| 20260503170919 | 68 | 308 | 3.0 | 8.0 | 0.00 | 0.18 | 0.00 | 46 | 1019.6 |
| 20260503170434 | 68 | 343 | 3.0 | 8.0 | 0.00 | 0.18 | 0.00 | 48 | 1019.6 |
| 20260503150905 | 63 | 318 | 4.0 | 8.0 | 0.00 | 0.33 | 0.00 | 55 | 1020.1 |
| 20260503150441 | 63 | 55 | 3.0 | 7.0 | 0.00 | 0.33 | 0.00 | 59 | 1020.1 |
| 20260503131411 | 58 | 317 | 3.0 | 8.0 | 0.00 | 0.62 | 0.00 | 86 | 1019.7 |
| 20260503130901 | 57 | 350 | 4.0 | 8.0 | 0.00 | 0.63 | 0.00 | 88 | 1019.7 |
| 20260503110417 | 42 | 53 | 1.0 | 2.0 | 0.00 | 0.72 | 0.00 | 93 | 1018.4 |
| 20260503090417 | 44 | 21 | 1.0 | 2.0 | 0.00 | 0.82 | 0.00 | 92 | 1016.9 |
| 20260503081424 | 45 | 19 | 1.0 | 2.0 | 0.00 | 0.86 | 0.00 | 92 | 1016.7 |
| 20260503080437 | 46 | 17 | 1.0 | 2.0 | 0.00 | 0.87 | 0.00 | 92 | 1016.7 |
| 20260503072906 | 47 | 353 | 1.0 | 3.0 | 0.00 | 0.90 | 0.00 | 92 | 1016.2 |
| 20260503072444 | 48 | 303 | 1.0 | 3.0 | 0.00 | 0.90 | 0.00 | 92 | 1016.3 |
| 20260503071405 | 48 | 326 | 1.0 | 3.0 | 0.00 | 0.90 | 0.00 | 92 | 1016.3 |
| 20260503070903 | 48 | 328 | 1.0 | 3.0 | 0.00 | 0.91 | 0.00 | 92 | 1016.3 |
| 20260503070403 | 48 | 326 | 1.0 | 3.0 | 0.00 | 0.91 | 0.00 | 92 | 1016.2 |
| 20260503054927 | 50 | 306 | 1.0 | 3.0 | 0.00 | 0.94 | 0.00 | 92 | 1015.9 |
| 20260503054436 | 50 | 318 | 1.0 | 3.0 | 0.00 | 0.94 | 0.00 | 92 | 1015.8 |
| 20260503053925 | 51 | 326 | 1.0 | 3.0 | 0.00 | 0.94 | 0.00 | 92 | 1015.8 |
| 20260503052420 | 51 | 304 | 1.0 | 3.0 | 0.00 | 0.94 | 0.00 | 91 | 1015.8 |
| 20260503051919 | 51 | 307 | 1.0 | 3.0 | 0.00 | 0.94 | 0.00 | 91 | 1015.8 |
| 20260503051408 | 51 | 293 | 1.0 | 3.0 | 0.00 | 0.94 | 0.00 | 91 | 1015.8 |
| 20260503050909 | 51 | 307 | 2.0 | 3.0 | 0.00 | 0.94 | 0.00 | 91 | 1015.7 |
| 20260503050402 | 52 | 351 | 1.0 | 3.0 | 0.00 | 0.94 | 0.00 | 91 | 1015.7 |
| 20260503045932 | 52 | 322 | 1.0 | 3.0 | 0.00 | 0.94 | 0.00 | 91 | 1015.8 |
| 20260503044912 | 52 | 331 | 0.0 | 3.0 | 0.00 | 0.94 | 0.00 | 91 | 1015.6 |
| 20260503044402 | 52 | 332 | 2.0 | 4.0 | 0.00 | 0.94 | 0.00 | 91 | 1015.7 |
| 20260503043943 | 52 | 320 | 2.0 | 5.0 | 0.00 | 0.94 | 0.00 | 91 | 1015.7 |
| 20260503043427 | 52 | 328 | 3.0 | 5.0 | 0.00 | 0.94 | 0.00 | 91 | 1015.5 |
| 20260503042931 | 53 | 337 | 2.0 | 5.0 | 0.00 | 0.94 | 0.00 | 91 | 1015.3 |
| 20260503042437 | 53 | 335 | 3.0 | 7.0 | 0.00 | 0.94 | 0.00 | 91 | 1015.5 |
| 20260503041434 | 53 | 333 | 3.0 | 9.0 | 0.00 | 0.94 | 0.00 | 91 | 1015.4 |
| 20260503040414 | 54 | 329 | 4.0 | 8.0 | 0.00 | 0.94 | 0.00 | 91 | 1015.4 |
| 20260503035907 | 54 | 319 | 2.0 | 5.0 | 0.00 | 0.94 | 0.94 | 91 | 1015.3 |
| 20260503035413 | 54 | 317 | 2.0 | 5.0 | 0.00 | 0.94 | 0.94 | 91 | 1015.2 |
| 20260503034926 | 54 | 322 | 2.0 | 6.0 | 0.00 | 0.94 | 0.94 | 91 | 1015.1 |
| 20260503034419 | 54 | 311 | 3.0 | 6.0 | 0.00 | 0.94 | 0.94 | 91 | 1015.0 |
| 20260503033433 | 54 | 308 | 3.0 | 6.0 | 0.00 | 0.94 | 0.94 | 91 | 1015.0 |
| 20260503032907 | 54 | 301 | 2.0 | 6.0 | 0.00 | 0.94 | 0.94 | 91 | 1014.8 |
| 20260503032401 | 54 | 306 | 2.0 | 5.0 | 0.00 | 0.94 | 0.94 | 91 | 1014.8 |
| 20260503031920 | 54 | 316 | 2.0 | 5.0 | 0.00 | 0.94 | 0.94 | 91 | 1014.7 |
| 20260503031424 | 54 | 326 | 3.0 | 5.0 | 0.00 | 0.94 | 0.94 | 91 | 1014.6 |
| 20260503030903 | 54 | 302 | 2.0 | 4.0 | 0.00 | 0.94 | 0.94 | 91 | 1014.5 |
| 20260503030412 | 54 | 304 | 1.0 | 4.0 | 0.00 | 0.94 | 0.94 | 91 | 1014.3 |
| 20260503025902 | 54 | 298 | 2.0 | 7.0 | 0.00 | 0.94 | 0.94 | 91 | 1014.2 |
| 20260503025439 | 55 | 312 | 3.0 | 7.0 | 0.00 | 0.94 | 0.94 | 91 | 1014.2 |
| 20260503024919 | 55 | 303 | 3.0 | 5.0 | 0.00 | 0.94 | 0.94 | 91 | 1014.0 |
| 20260503024413 | 55 | 311 | 2.0 | 4.0 | 0.00 | 0.94 | 0.94 | 91 | 1014.1 |
| 20260503023435 | 55 | 310 | 2.0 | 6.0 | 0.00 | 0.94 | 0.94 | 91 | 1014.0 |
| 20260503022940 | 55 | 295 | 3.0 | 4.0 | 0.00 | 0.94 | 0.94 | 91 | 1014.0 |
| 20260503022415 | 55 | 313 | 2.0 | 4.0 | 0.00 | 0.94 | 0.94 | 91 | 1014.0 |
| 20260503021943 | 55 | 314 | 2.0 | 3.0 | 0.00 | 0.94 | 0.94 | 91 | 1013.9 |
| 20260503021411 | 55 | 300 | 2.0 | 3.0 | 0.00 | 0.94 | 0.94 | 91 | 1013.9 |
| 20260503020901 | 55 | 305 | 1.0 | 3.0 | 0.00 | 0.94 | 0.94 | 91 | 1013.6 |
| 20260503020410 | 55 | 292 | 2.0 | 3.0 | 0.00 | 0.94 | 0.94 | 91 | 1013.5 |
| 20260503015945 | 55 | 306 | 2.0 | 3.0 | 0.00 | 0.94 | 0.94 | 91 | 1013.4 |
| 20260503014933 | 55 | 301 | 1.0 | 2.0 | 0.00 | 0.94 | 0.94 | 91 | 1013.3 |
| 20260503014414 | 55 | 319 | 0.0 | 3.0 | 0.00 | 0.94 | 0.94 | 91 | 1013.2 |
| 20260503013913 | 55 | 304 | 1.0 | 3.0 | 0.00 | 0.94 | 0.94 | 91 | 1013.2 |
| 20260503013436 | 55 | 321 | 1.0 | 3.0 | 0.00 | 0.94 | 0.94 | 91 | 1013.2 |
| 20260503012909 | 55 | 316 | 1.0 | 4.0 | 0.00 | 0.94 | 0.94 | 91 | 1013.3 |
| 20260503012442 | 55 | 325 | 1.0 | 4.0 | 0.00 | 0.94 | 0.94 | 91 | 1013.2 |
| 20260503011935 | 55 | 329 | 1.0 | 4.0 | 0.00 | 0.94 | 0.94 | 91 | 1013.2 |
| 20260503010933 | 55 | 341 | 3.0 | 5.0 | 0.00 | 0.94 | 0.94 | 91 | 1013.2 |
| 20260503010411 | 55 | 296 | 2.0 | 5.0 | 0.00 | 0.94 | 0.94 | 91 | 1013.3 |
| 20260503005436 | 55 | 338 | 3.0 | 8.0 | 0.00 | 0.94 | 0.94 | 90 | 1013.0 |
| 20260503004929 | 55 | 320 | 2.0 | 8.0 | 0.00 | 0.94 | 0.94 | 90 | 1013.0 |
| 20260503004417 | 55 | 333 | 4.0 | 8.0 | 0.00 | 0.94 | 0.94 | 90 | 1013.0 |
| 20260503003917 | 55 | 305 | 3.0 | 5.0 | 0.00 | 0.94 | 0.94 | 90 | 1013.0 |
| 20260503003441 | 55 | 308 | 2.0 | 4.0 | 0.00 | 0.94 | 0.94 | 91 | 1012.8 |
| 20260503002927 | 55 | 311 | 2.0 | 5.0 | 0.00 | 0.94 | 0.94 | 90 | 1012.7 |
| 20260503002433 | 55 | 333 | 3.0 | 5.0 | 0.00 | 0.94 | 0.94 | 90 | 1012.4 |
| 20260503001912 | 56 | 314 | 2.0 | 8.0 | 0.00 | 0.94 | 0.94 | 90 | 1012.3 |
| 20260503001428 | 56 | 7 | 1.0 | 8.0 | 0.00 | 0.94 | 0.94 | 90 | 1012.4 |
| 20260503000941 | 56 | 330 | 4.0 | 8.0 | 0.00 | 0.94 | 0.94 | 90 | 1012.5 |
| 20260503000426 | 56 | 316 | 2.0 | 8.0 | 0.00 | 0.95 | 0.94 | 90 | 1012.5 |
| 20260502235411 | 56 | 299 | 3.0 | 7.0 | 0.00 | 0.96 | 0.94 | 90 | 1012.3 |
| 20260502234927 | 56 | 327 | 2.0 | 7.0 | 0.00 | 0.97 | 0.94 | 90 | 1012.1 |
| 20260502234438 | 56 | 312 | 2.0 | 8.0 | 0.00 | 0.98 | 0.94 | 90 | 1012.0 |
| 20260502233932 | 56 | 322 | 3.0 | 8.0 | 0.00 | 0.98 | 0.94 | 90 | 1012.0 |
| 20260502233422 | 56 | 333 | 2.0 | 7.0 | 0.00 | 0.98 | 0.94 | 90 | 1011.9 |
| 20260502232924 | 56 | 327 | 2.0 | 9.0 | 0.00 | 0.98 | 0.94 | 90 | 1011.9 |
| 20260502232421 | 56 | 322 | 4.0 | 9.0 | 0.00 | 0.98 | 0.94 | 90 | 1011.9 |
| 20260502231904 | 56 | 331 | 4.0 | 8.0 | 0.00 | 0.98 | 0.94 | 90 | 1011.6 |
| 20260502231417 | 56 | 322 | 3.0 | 6.0 | 0.00 | 0.98 | 0.94 | 90 | 1011.4 |
| 20260502230919 | 56 | 341 | 3.0 | 9.0 | 0.00 | 0.98 | 0.94 | 90 | 1011.1 |
| 20260502230418 | 56 | 3 | 3.0 | 12.0 | 0.00 | 0.98 | 0.94 | 90 | 1011.3 |
| 20260502225901 | 56 | 320 | 3.0 | 12.0 | 0.00 | 0.98 | 0.94 | 90 | 1011.4 |
| 20260502225408 | 56 | 333 | 4.0 | 11.0 | 0.00 | 0.98 | 0.94 | 90 | 1011.5 |
| 20260502224902 | 57 | 316 | 5.0 | 11.0 | 0.00 | 0.98 | 0.94 | 90 | 1011.5 |
| 20260502224408 | 57 | 330 | 4.0 | 10.0 | 0.00 | 0.98 | 0.94 | 90 | 1011.6 |
| 20260502223945 | 57 | 324 | 3.0 | 10.0 | 0.00 | 0.98 | 0.94 | 90 | 1011.6 |
| 20260502223421 | 57 | 316 | 5.0 | 12.0 | 0.00 | 0.98 | 0.94 | 90 | 1011.7 |
| 20260502222933 | 57 | 343 | 3.0 | 13.0 | 0.00 | 0.98 | 0.94 | 90 | 1011.6 |
| 20260502222441 | 57 | 326 | 7.0 | 13.0 | 0.00 | 0.98 | 0.94 | 90 | 1011.5 |
| 20260502221911 | 57 | 321 | 4.0 | 10.0 | 0.00 | 0.98 | 0.94 | 90 | 1011.4 |
| 20260502220935 | 57 | 327 | 7.0 | 11.0 | 0.00 | 0.98 | 0.94 | 91 | 1011.2 |
| 20260502220405 | 57 | 309 | 4.0 | 11.0 | 0.01 | 0.98 | 0.94 | 91 | 1011.2 |
| 20260502215432 | 57 | 332 | 7.0 | 10.0 | 0.01 | 0.98 | 0.94 | 91 | 1011.1 |
| 20260502214446 | 57 | 318 | 5.0 | 12.0 | 0.01 | 0.98 | 0.94 | 91 | 1010.9 |
| 20260502213409 | 57 | 342 | 6.0 | 9.0 | 0.01 | 0.99 | 0.94 | 91 | 1010.6 |
| 20260502212911 | 57 | 343 | 4.0 | 9.0 | 0.01 | 0.99 | 0.94 | 91 | 1010.5 |
| 20260502212421 | 57 | 323 | 4.0 | 9.0 | 0.01 | 0.99 | 0.94 | 91 | 1010.5 |
| 20260502211916 | 57 | 324 | 6.0 | 9.0 | 0.01 | 0.99 | 0.94 | 91 | 1010.6 |
| 20260502211425 | 57 | 338 | 4.0 | 10.0 | 0.01 | 0.99 | 0.94 | 91 | 1010.4 |
| 20260502210943 | 57 | 311 | 4.0 | 11.0 | 0.01 | 0.99 | 0.94 | 91 | 1010.5 |
| 20260502210429 | 57 | 328 | 4.0 | 11.0 | 0.00 | 1.00 | 0.93 | 91 | 1010.5 |
| 20260502205906 | 57 | 328 | 4.0 | 10.0 | 0.00 | 1.00 | 0.93 | 91 | 1010.4 |
| 20260502205428 | 57 | 356 | 6.0 | 11.0 | 0.00 | 1.00 | 0.93 | 91 | 1010.3 |
| 20260502204938 | 57 | 340 | 5.0 | 16.0 | 0.00 | 1.01 | 0.93 | 91 | 1010.4 |
| 20260502203920 | 57 | 320 | 6.0 | 14.0 | 0.00 | 1.01 | 0.93 | 91 | 1010.4 |
| 20260502203443 | 57 | 350 | 7.0 | 14.0 | 0.01 | 1.01 | 0.93 | 91 | 1010.2 |
| 20260502202906 | 57 | 320 | 5.0 | 11.0 | 0.01 | 1.01 | 0.93 | 91 | 1010.1 |
| 20260502202423 | 58 | 312 | 6.0 | 14.0 | 0.02 | 1.01 | 0.93 | 91 | 1010.3 |
| 20260502201410 | 58 | 335 | 5.0 | 18.0 | 0.04 | 1.01 | 0.93 | 91 | 1009.7 |
| 20260502200935 | 58 | 326 | 7.0 | 14.0 | 0.04 | 1.01 | 0.93 | 91 | 1010.1 |
| 20260502200440 | 58 | 324 | 7.0 | 14.0 | 0.04 | 1.01 | 0.93 | 91 | 1010.3 |
| 20260502195905 | 58 | 319 | 4.0 | 13.0 | 0.04 | 1.01 | 0.93 | 91 | 1010.1 |
| 20260502195424 | 58 | 327 | 7.0 | 13.0 | 0.05 | 1.02 | 0.93 | 91 | 1009.9 |
| 20260502194417 | 58 | 334 | 4.0 | 11.0 | 0.05 | 1.02 | 0.93 | 91 | 1009.9 |
| 20260502193422 | 58 | 333 | 5.0 | 12.0 | 0.05 | 1.01 | 0.92 | 91 | 1010.1 |
| 20260502192916 | 59 | 336 | 7.0 | 12.0 | 0.05 | 1.01 | 0.92 | 91 | 1010.2 |
| 20260502191415 | 59 | 334 | 3.0 | 12.0 | 0.04 | 0.98 | 0.89 | 91 | 1010.1 |